Home   Weather   Minsk   Past weeks

Flag for Belarus Past Weather in Minsk, Belarus — Yesterday and Last 2 Weeks

Now
45 °F

Passing clouds.


Feels Like: 38 °F
Forecast: 33 / 54 °F
Wind: 13 mph from West

Location: Minsk

Current Time: Apr 24, 2017 at 4:52:04 pm

Latest Report: Apr 24, 2017 at 4:00 pm


Visibility: N/A

Pressure: 29.86 "Hg

Humidity: 53%

Dew Point: 28 °F

Location of MinskLocation

Past Weather in Minsk — Graph

°F

Minsk Temperature Yesterday

Maximum temperature yesterday: 46 °F (at 4:00 pm)
Minimum temperature yesterday: 32 °F (at 3:30 am)
Average temperature yesterday: 39 °F

High & Low Weather Summary for the Past Weeks

 TemperatureHumidityPressure
High61 °F (Apr 10, 2:30 pm)100% (Apr 13, 8:35 am)30.42 "Hg (Apr 13, 8:35 am)
Low19 °F (Apr 18, 4:30 am)19% (Apr 24, 2:30 pm)29.39 "Hg (Apr 22, 7:30 am)
Average39 °F71%29.85 "Hg
* Reported Apr 9 3:00 pm — Apr 24 3:00 pm, Minsk, Weather by CustomWeather, © 2017

Note: Actual official high and low records may vary slightly from our data, if they occured in-between our weather recording intervals... More about our weather records

Advertising

Minsk Weather History for the Previous 24 Hours

Scroll right to see more
 ConditionsComfort  
Time TempWeatherWind HumidityBarometerVisibility
3:00 pm
Mon, Apr 24
50 °FPassing clouds.13 mph25%29.86 "HgN/A
2:30 pm50 °FPassing clouds.10 mph19%29.86 "HgN/A
2:00 pm50 °FPassing clouds.8 mph28%29.86 "HgN/A
1:30 pm48 °FPassing clouds.8 mph29%29.86 "HgN/A
1:00 pm48 °FPassing clouds.8 mph34%29.86 "HgN/A
12:30 pm48 °FPassing clouds.6 mph37%29.86 "HgN/A
12:00 pm46 °FPassing clouds.8 mph37%29.86 "HgN/A
11:30 am45 °FScattered clouds.8 mph42%29.86 "HgN/A
11:00 am46 °FScattered clouds.6 mph43%29.89 "HgN/A
10:30 am45 °FPassing clouds.6 mph49%29.86 "HgN/A
10:00 am43 °FPassing clouds.6 mph57%29.86 "HgN/A
9:30 am41 °FPassing clouds.3 mph61%29.86 "HgN/A
9:00 am39 °FPassing clouds.6 mph70%29.86 "HgN/A
8:30 am36 °FSunny.6 mph81%29.86 "Hg10 mi
8:00 am34 °FSunny.3 mph81%29.86 "Hg10 mi
7:30 am32 °FSunny.No wind87%29.86 "Hg10 mi
7:00 am30 °FSunny.No wind93%29.86 "Hg10 mi
6:30 am28 °FClear.No wind93%29.86 "Hg10 mi
6:00 am25 °FClear.No wind93%29.83 "Hg10 mi
5:30 am25 °FClear.No wind93%29.83 "Hg10 mi
5:00 am27 °FClear.No wind86%29.83 "Hg10 mi
4:30 am27 °FClear.1 mph93%29.83 "Hg10 mi
4:00 am30 °FClear.No wind86%29.86 "Hg10 mi
3:30 am28 °FClear.No wind93%29.83 "Hg10 mi
3:00 am28 °FClear.No wind86%29.86 "Hg10 mi
2:30 am30 °FClear.1 mph86%29.86 "Hg10 mi
2:00 am30 °FClear.3 mph86%29.83 "Hg10 mi
1:30 am30 °FClear.3 mph86%29.86 "Hg10 mi
1:00 am32 °FClear.1 mph80%29.86 "Hg10 mi
12:30 am32 °FClear.3 mph80%29.83 "Hg10 mi
12:00 am34 °FClear.3 mph75%29.83 "Hg10 mi
11:30 pm
Sun, Apr 23
34 °FClear.6 mph70%29.83 "Hg10 mi
11:00 pm34 °FClear.3 mph70%29.83 "Hg10 mi
10:30 pm36 °FClear.3 mph60%29.83 "Hg10 mi
10:00 pm37 °FClear.6 mph56%29.80 "Hg10 mi
9:30 pm39 °FClear.6 mph52%29.80 "Hg10 mi
9:00 pm39 °FScattered clouds.6 mph48%29.80 "HgN/A
8:30 pm41 °FScattered clouds.3 mph45%29.80 "HgN/A
8:00 pm43 °FScattered clouds.3 mph42%29.77 "HgN/A
7:30 pm45 °FScattered clouds.6 mph37%29.77 "HgN/A
7:00 pm45 °FPartly sunny.8 mph37%29.77 "HgN/A
6:30 pm45 °FPartly sunny.10 mph39%29.74 "HgN/A
6:00 pm45 °FSunny.15 mph39%29.74 "Hg10 mi
5:30 pm45 °FPartly sunny.13 mph46%29.74 "HgN/A
5:00 pm45 °FPartly sunny.10 mph42%29.74 "HgN/A
4:00 pm46 °FPartly sunny.10 mph40%29.74 "HgN/A
Weather by CustomWeather, © 2017

See weather overviewHow to use our weather pages